Iowa City, IA

9:02 PM CST on February 26, 2017 (GMT -0600)
Iowa City Municipal

Weather History for KIOW - January, 2013

Change the Weather History Date:

Tuesday, January 8, 2013

  Actual Average Record
Temperature  
Mean Temperature 33 °F 22 °F  
Max Temperature 43 °F 30 °F 64 °F (2003)
Min Temperature 23 °F 14 °F -15 °F (1970)
Degree Days  
Heating Degree Days 32 43  
Month to date heating degree days 342 344  
Since 1 July heating degree days 2714 2883  
Cooling Degree Days 0 0  
Month to date cooling degree days 0 0  
Year to date cooling degree days 0 0  
Moisture  
Dew Point 28 °F    
Average Humidity 76    
Maximum Humidity 92    
Minimum Humidity 60    
Precipitation  
Precipitation 0.00 in 0.02 in 0.19 in (1964)
Month to date precipitation T 0.16  
Year to date precipitation T 0.16  
Sea Level Pressure  
Sea Level Pressure 30.05 in    
Wind  
Wind Speed 7 mph (South)    
Max Wind Speed 20 mph    
Max Gust Speed 24 mph    
Visibility 10 miles    
Events      
T = Trace of Precipitation, MM = Missing Value Source: NWS Daily Summary

Daily Weather History Graph

Daily Weather History Graph

Search for Another Location

Airport or City:

Trip Planner

Search our weather history database for the weather conditions in past years. The results will help you decide how hot, cold, wet, or windy it might be!

Date:

Astronomy

Jan. 08, 2013 Rise Set
Actual Time 7:32 AM CST 4:53 PM CST
Civil Twilight 7:01 AM CST 5:24 PM CST
Nautical Twilight 6:27 AM CST 5:59 PM CST
Astronomical Twilight 5:53 AM CST 6:32 PM CST
Moon 4:05 AM CST (1/8) 1:56 PM CST (1/8)
Length of Visible Light 10h 22m
Length of Day
9h 20m
Waning Crescent, 13% of the Moon is Illuminated
Jan 8
Waning Crescent
Jan 11
New
Jan 18
First Quarter
Jan 26
Full
Feb 3
Last Quarter

Hourly Weather History & Observations

Time (CST) Temp. Windchill Dew Point Humidity Pressure Visibility Wind Dir Wind Speed Gust Speed Precip Events Conditions
12:52 AM 28.9 °F - 25.0 °F 85% 30.07 in 10.0 mi Calm Calm - N/A   Clear
1:52 AM 28.9 °F - 25.0 °F 85% 30.09 in 10.0 mi Calm Calm - N/A   Clear
2:52 AM 28.9 °F - 25.0 °F 85% 30.09 in 10.0 mi Calm Calm - N/A   Clear
3:52 AM 28.0 °F 24.2 °F 25.0 °F 88% 30.08 in 10.0 mi SSE 3.5 mph - N/A   Clear
4:52 AM 28.0 °F - 25.0 °F 88% 30.07 in 10.0 mi Calm Calm - N/A   Clear
5:52 AM 27.0 °F - 24.1 °F 89% 30.07 in 10.0 mi Calm Calm - N/A   Clear
6:52 AM 25.0 °F - 21.9 °F 88% 30.09 in 10.0 mi Calm Calm - N/A   Clear
7:52 AM 25.0 °F - 21.9 °F 88% 30.09 in 10.0 mi Calm Calm - N/A   Clear
8:52 AM 27.0 °F - 23.0 °F 85% 30.11 in 10.0 mi Calm Calm - N/A   Clear
9:52 AM 32.0 °F 26.4 °F 27.0 °F 82% 30.10 in 10.0 mi SE 5.8 mph - N/A   Clear
10:52 AM 36.0 °F 30.3 °F 28.0 °F 73% 30.09 in 10.0 mi SSE 6.9 mph - N/A   Clear
11:52 AM 37.9 °F 31.5 °F 28.9 °F 70% 30.06 in 10.0 mi SSE 9.2 mph - N/A   Clear
12:52 PM 41.0 °F 33.5 °F 28.9 °F 62% 30.02 in 10.0 mi South 13.8 mph - N/A   Clear
1:52 PM 42.1 °F 34.2 °F 30.0 °F 62% 30.00 in 10.0 mi South 16.1 mph 21.9 mph N/A   Clear
2:52 PM 42.1 °F 33.9 °F 30.0 °F 62% 29.99 in 10.0 mi South 17.3 mph - N/A   Clear
3:52 PM 42.1 °F 34.5 °F 30.9 °F 65% 29.96 in 10.0 mi SSE 15.0 mph - N/A   Clear
4:52 PM 41.0 °F 34.7 °F 30.9 °F 67% 29.97 in 10.0 mi SSE 10.4 mph - N/A   Overcast
5:52 PM 39.9 °F 32.5 °F 30.9 °F 70% 30.00 in 10.0 mi South 12.7 mph - N/A   Mostly Cloudy
6:52 PM 37.0 °F 29.8 °F 30.0 °F 76% 30.02 in 10.0 mi South 10.4 mph - N/A   Clear
7:52 PM 37.9 °F 32.1 °F 30.0 °F 73% 30.02 in 10.0 mi South 8.1 mph - N/A   Clear
8:52 PM 37.9 °F 31.5 °F 30.0 °F 73% 30.02 in 10.0 mi South 9.2 mph - N/A   Clear
9:52 PM 39.9 °F 33.9 °F 30.0 °F 68% 30.02 in 10.0 mi SSW 9.2 mph - N/A   Clear
10:52 PM 39.0 °F 32.8 °F 30.9 °F 73% 30.04 in 10.0 mi SW 9.2 mph - N/A   Clear
11:52 PM 37.9 °F 30.9 °F 30.9 °F 76% 30.06 in 10.0 mi West 10.4 mph - N/A   Partly Cloudy